Location: Maiden_LMO
(35.5760°N, 81.2120°W)
Time: 07:09:14
(UTC-04:00)

ADEOS II - Visible Passes

Search period start: 18 October 2017 00:00
Search period end: 28 October 2017 00:00
Orbit: 800 x 801 km, 98.4° (Epoch: 17 October)

Date Brightness Start Highest point End Pass type
(mag) Time Alt. Az. Time Alt. Az. Time Alt. Az.
18 Oct 3.3 05:16:39 10° N 05:19:22 30° N 05:19:22 30° N visible
19 Oct 3.7 04:50:11 10° NNE 04:52:28 26° NNE 04:52:28 26° NNE visible
19 Oct 4.0 06:32:27 10° NW 06:33:24 12° NW 06:33:24 12° NW visible
20 Oct 4.4 04:24:02 10° NNE 04:25:34 19° NE 04:25:34 19° NE visible
20 Oct 3.7 06:04:27 10° NNW 06:06:30 18° NW 06:06:30 18° NW visible
21 Oct 5.0 03:58:20 10° NE 03:58:39 11° NE 03:58:39 11° NE visible
21 Oct 3.5 05:37:22 10° N 05:39:36 23° NNW 05:39:36 23° NNW visible
22 Oct 3.7 05:10:39 10° N 05:12:41 24° N 05:12:41 24° N visible
23 Oct 4.2 04:44:15 10° NNE 04:45:47 20° NNE 04:45:47 20° NNE visible
23 Oct 4.0 06:25:59 10° NNW 06:26:43 12° NW 06:26:43 12° NW visible
24 Oct 4.7 04:18:10 10° NNE 04:18:52 14° NE 04:18:52 14° NE visible
24 Oct 3.8 05:58:18 10° NNW 05:59:49 17° NNW 05:59:49 17° NNW visible
25 Oct 3.8 05:31:18 10° N 05:32:54 19° N 05:32:54 19° N visible
26 Oct 4.1 05:04:40 10° N 05:06:00 18° N 05:06:00 18° N visible
27 Oct 4.5 04:38:20 10° NNE 04:39:05 14° NNE 04:39:05 14° NNE visible
27 Oct 4.1 06:19:39 10° NNW 06:20:01 11° NNW 06:20:01 11° NNW visible
